This demonstration page uses our WeatherBlox Daily Observations layout. Learn more.

Left ArrowRight Arrow

39.51506, -84.39828

Hourly Observations for January 24, 2015

Temp ( °F °C ) Dew Point ( °F °C ) Humidity (%) Winds ( mph kmh ) Pressure ( in mb ) Visibility ( mi km ) Precip ( " mm )
12:15 am 00:15 Clear 32 0 26 -3.1 80 80 Calm 29.91 1013 7 11 0.00 0.00
12:35 am 00:35 Clear 34 1.2 28 -2.1 79 79 Calm 29.91 1013 7 11 0.00 0.00
12:55 am 00:55 Clear 34 1 28 -2.3 79 79 Calm 29.88 1012 7 11 0.00 0.00
1:15 am 01:15 Clear 32 0 26 -3.1 80 80 NNW 5 7 29.88 1012 7 11 0.00 0.00
1:35 am 01:35 Partly Cloudy 32 0 26 -3.1 80 80 NW 6 9 29.88 1012 7 11 0.00 0.00
1:55 am 01:55 Partly Cloudy 32 0 26 -3.2 79 79 NW 5 7 29.88 1012 7 11 0.00 0.00
2:15 am 02:15 Partly Cloudy 31 -0.7 25 -3.8 80 80 NW 3 6 29.88 1012 7 11 0.00 0.00
2:35 am 02:35 Partly Cloudy 30 -1.1 24 -4.3 79 79 NW 3 6 29.88 1012 7 11 0.00 0.00
2:55 am 02:55 Cloudy 29 -1.5 24 -4.5 80 80 NW 5 7 29.88 1012 7 11 0.00 0.00
3:15 am 03:15 Cloudy 31 -0.7 25 -4 79 79 WNW 6 9 29.88 1012 10 16 0.00 0.00
3:35 am 03:35 Cloudy 30 -0.9 24 -4.5 77 77 WNW 6 9 29.88 1012 10 16 0.00 0.00
3:55 am 03:55 Cloudy 30 -1 24 -4.7 76 76 W 8 13 29.88 1012 10 16 0.00 0.00
4:15 am 04:15 Cloudy 29 -1.5 23 -5 77 77 WNW 7 11 29.88 1012 10 16 0.00 0.00
4:35 am 04:35 Cloudy 29 -1.5 23 -5.1 77 77 NW 7 11 29.88 1012 10 16 0.00 0.00
4:55 am 04:55 Cloudy 30 -1.3 22 -5.5 73 73 WNW 7 11 29.85 1011 10 16 0.00 0.00
5:15 am 05:15 Cloudy 30 -1 23 -5.2 73 73 WNW 7 11 29.85 1011 10 16 0.00 0.00
5:35 am 05:35 Cloudy 31 -0.7 23 -5.1 72 72 WNW 7 11 29.85 1011 10 16 0.00 0.00
6:00 am 06:00 Cloudy 31 -0.8 22 -5.3 72 72 NW 8 13 29.85 1011 10 16 0.00 0.00
6:15 am 06:15 Cloudy 30 -1 22 -5.3 73 73 W 8 13 29.85 1011 10 16 0.00 0.00
6:35 am 06:35 Mostly Cloudy 29 -1.5 22 -5.6 74 74 W 6 9 29.88 1012 10 16 0.00 0.00
6:55 am 06:55 Partly Cloudy 29 -1.5 22 -5.5 74 74 W 3 6 29.85 1011 10 16 0.00 0.00
7:15 am 07:15 Partly Cloudy 29 -1.5 23 -5.1 77 77 SW 3 6 29.85 1011 10 16 0.00 0.00
7:35 am 07:35 Partly Cloudy 29 -1.5 24 -4.7 79 79 SW 3 6 29.85 1011 10 16 0.00 0.00
7:55 am 07:55 Mostly Cloudy 29 -1.5 24 -4.7 79 79 SW 7 11 29.85 1011 10 16 0.00 0.00
8:15 am 08:15 Cloudy 29 -1.5 23 -5 77 77 SSW 6 9 29.85 1011 10 16 0.00 0.00
8:35 am 08:35 Cloudy 29 -1.5 23 -5.2 76 76 SSW 8 13 29.85 1011 10 16 0.00 0.00
8:55 am 08:55 Cloudy 30 -1.1 23 -4.9 76 76 SW 10 17 29.85 1011 10 16 0.00 0.00
9:15 am 09:15 Mostly Cloudy 29 -1.5 23 -5.2 76 76 SW 8 13 29.85 1011 10 16 0.00 0.00
9:35 am 09:35 Mostly Cloudy 32 0 24 -4.4 73 73 SW 10 17 29.85 1011 10 16 0.00 0.00
9:55 am 09:55 Mostly Cloudy 34 0.9 26 -3.4 73 73 SW 10 17 29.83 1010 10 16 0.00 0.00
10:15 am 10:15 Partly Cloudy 34 1.2 25 -3.8 70 70 SW 12 19 29.85 1011 10 16 0.00 0.00
10:35 am 10:35 Partly Cloudy 34 1.2 24 -4.4 67 67 SW 12 19 29.85 1011 10 16 0.00 0.00
10:55 am 10:55 Sunny 36 2.1 25 -4.1 64 64 SW 12 19 29.80 1009 10 16 0.00 0.00
11:15 am 11:15 Sunny 37 2.6 25 -4 62 62 SW 13 20 29.80 1009 10 16 0.00 0.00
11:35 am 11:35 Sunny 37 2.9 25 -4 61 61 WSW 9 15 29.80 1009 10 16 0.00 0.00
11:55 am 11:55 Sunny 39 4 26 -3.5 58 58 SW 10 17 29.77 1008 10 16 0.00 0.00
12:15 pm 12:15 Sunny 39 4 25 -3.7 58 58 SW 10 17 29.77 1008 10 16 0.00 0.00
12:35 pm 12:35 Sunny 40 4.6 26 -3.6 56 56 SW 8 13 29.74 1007 10 16 0.00 0.00
12:55 pm 12:55 Partly Cloudy 41 5 26 -3.6 54 54 SW 10 17 29.74 1007 10 16 0.00 0.00
1:15 pm 13:15 Partly Cloudy 42 5.5 25 -4 51 51 WSW 14 22 29.74 1007 10 16 0.00 0.00
1:35 pm 13:35 Mostly Cloudy 42 5.5 25 -3.7 52 52 WSW 13 20 29.74 1007 10 16 0.00 0.00
1:55 pm 13:55 Cloudy 40 4.7 25 -3.9 54 54 WSW 15 24 29.74 1007 10 16 0.00 0.00
2:15 pm 14:15 Cloudy 40 4.7 25 -3.9 54 54 W 12 19 29.74 1007 10 16 0.00 0.00
2:35 pm 14:35 Cloudy 40 4.7 26 -3.3 57 57 WNW 12 19 29.74 1007 10 16 0.00 0.00
2:55 pm 14:55 Cloudy 39 4 26 -3.2 60 60 WNW 16 26 29.74 1007 10 16 0.00 0.00
3:15 pm 15:15 Cloudy 39 4 28 -2.3 64 64 W 12 19 29.74 1007 10 16 0.00 0.00
3:35 pm 15:35 Cloudy 39 4 28 -2 65 65 W 13 20 29.74 1007 10 16 0.00 0.00
3:55 pm 15:55 Cloudy 39 4 29 -1.6 67 67 W 10 17 29.74 1007 10 16 0.00 0.00
4:15 pm 16:15 Cloudy 39 4 29 -1.7 67 67 W 10 17 29.77 1008 10 16 0.00 0.00
4:35 pm 16:35 Cloudy 39 4 29 -1.8 66 66 W 10 17 29.74 1007 10 16 0.00 0.00
4:55 pm 16:55 Partly Cloudy 39 4 28 -2.2 64 64 W 10 17 29.74 1007 10 16 0.00 0.00
5:15 pm 17:15 Sunny 39 4 28 -2 65 65 W 9 15 29.77 1008 10 16 0.00 0.00
5:35 pm 17:35 Sunny 37 2.8 27 -2.6 68 68 W 9 15 29.77 1008 10 16 0.00 0.00
5:55 pm 17:55 Clear 37 2.6 28 -2.5 69 69 W 8 13 29.77 1008 10 16 0.00 0.00
6:15 pm 18:15 Clear 36 2.4 28 -2.1 72 72 WSW 7 11 29.80 1009 10 16 0.00 0.00
6:35 pm 18:35 Clear 34 1.2 27 -3 74 74 WSW 7 11 29.83 1010 10 16 0.00 0.00
6:55 pm 18:55 Clear 34 1.2 27 -2.6 76 76 WSW 5 7 29.85 1011 10 16 0.00 0.00
7:15 pm 19:15 Partly Cloudy 34 1.2 28 -2.4 77 77 W 5 7 29.85 1011 10 16 0.00 0.00
7:35 pm 19:35 Mostly Cloudy 34 1.2 28 -2.3 78 78 SW 6 9 29.85 1011 10 16 0.00 0.00
7:55 pm 19:55 Cloudy 34 1.2 28 -2.4 77 77 SW 6 9 29.85 1011 10 16 0.00 0.00
8:15 pm 20:15 Cloudy 34 1.2 28 -2.1 79 79 SW 5 7 29.85 1011 10 16 0.00 0.00
8:35 pm 20:35 Cloudy 34 1.2 28 -2.3 78 78 SW 5 7 29.85 1011 10 16 0.00 0.00
8:55 pm 20:55 Cloudy 36 2 29 -1.6 77 77 SW 6 9 29.83 1010 10 16 0.00 0.00
9:15 pm 21:15 Cloudy 37 2.6 29 -1.5 75 75 Calm 29.83 1010 10 16 0.00 0.00
9:35 pm 21:35 Cloudy 37 2.6 29 -1.7 74 74 Calm 29.83 1010 10 16 0.00 0.00
9:55 pm 21:55 Cloudy 37 2.6 29 -1.9 73 73 SSW 6 9 29.83 1010 10 16 0.00 0.00
10:15 pm 22:15 Cloudy 37 2.6 28 -2 72 72 SSW 10 17 29.83 1010 10 16 0.00 0.00
10:35 pm 22:35 Cloudy 37 2.6 28 -2.1 71 71 SSW 8 13 29.80 1009 10 16 0.00 0.00
10:55 pm 22:55 Cloudy 37 2.6 28 -2 72 72 SSW 5 7 29.80 1009 10 16 0.00 0.00
11:15 pm 23:15 Cloudy 37 2.6 29 -1.8 73 73 SSW 3 6 29.83 1010 10 16 0.00 0.00
11:35 pm 23:35 Cloudy 37 2.6 28 -2 72 72 SSW 6 9 29.83 1010 10 16 0.00 0.00
11:55 pm 23:55 Cloudy 37 3 29 -1.9 71 71 SSW 7 11 29.80 1009 10 16 0.00 0.00

Powered by AerisWeather